Waarnemingen

Advertentie
Mijn weer
Brüssel, België (6451): temperatuur & dauwpunt: 17.01.2019 09:00:00 - 23.01.2019 09:00:00 (CET)Brüssel, België (6451): windsnelheid & windstoten: 17.01.2019 09:00:00 - 23.01.2019 09:00:00 (CET)Brüssel, België (6451): windrichting: 17.01.2019 09:00:00 - 23.01.2019 09:00:00 (CET)Brüssel, België (6451): luchtdruk: 17.01.2019 09:00:00 - 23.01.2019 09:00:00 (CET)Brüssel, België (6451): zicht: 17.01.2019 09:00:00 - 23.01.2019 09:00:00 (CET)
Datum & Tijd tt [°C] td [°C] ff [km/u] ff [kn] fx [km/u] fx [kn] dd ppp [hPa] vv [km]
23.01.2019 09:00:00 - - - - - - - - -
23.01.2019 08:00:00 -1,7 -3,0 9 5 14 8 O 996,6 3,5
23.01.2019 07:00:00 -1,8 -3,3 8 4 - - OZO 996,1 6
23.01.2019 06:00:00 -1,5 -3,1 11 6 22 12 OZO 995,9 8
23.01.2019 05:00:00 -1,0 -2,1 13 7 22 12 OZO 996,1 7
23.01.2019 04:00:00 -0,7 -2,3 4 2 - - - 996,8 10
23.01.2019 03:00:00 -1,3 -2,6 13 7 18 10 OZO 997,2 9
23.01.2019 02:00:00 -1,1 -2,4 8 4 22 12 ZO 997,9 9
23.01.2019 01:00:00 -0,5 -2,1 11 6 - - ZZO 998,6 9
23.01.2019 00:00:00 -0,3 -1,8 8 4 14 8 ZZO 999,3 8
22.01.2019 23:00:00 -0,2 -1,8 9 5 25 14 Z 999,9 8
22.01.2019 22:00:00 -0,2 -1,9 13 7 - - ZZW 1000,4 8
22.01.2019 21:00:00 -0,3 -2,1 16 9 25 14 ZZW 1001,0 8
22.01.2019 20:00:00 -0,4 -2,4 13 7 22 12 Z 1001,3 8
22.01.2019 19:00:00 -0,4 -2,3 11 6 - - ZZW 1002,0 9
22.01.2019 18:00:00 -0,5 -2,5 15 8 22 12 ZZW 1002,2 9
22.01.2019 17:00:00 -0,6 -2,8 11 6 25 14 ZZW 1002,7 10
22.01.2019 16:00:00 -0,8 -2,9 16 9 - - ZZW 1003,2 9
22.01.2019 15:00:00 -1,3 -2,7 21 11 40 21 ZZW 1003,5 6
22.01.2019 14:00:00 -1,3 -2,7 26 14 40 21 ZZW 1004,3 1,3
22.01.2019 13:00:00 -1,0 -3,0 28 15 - - ZZW 1004,8 2,8
22.01.2019 12:00:00 -1,6 -3,8 28 15 40 21 Z 1005,6 7
22.01.2019 11:00:00 -2,0 -4,1 24 13 40 21 Z 1006,3 1,6
22.01.2019 10:00:00 -2,1 -5,4 22 12 - - Z 1007,2 8
22.01.2019 09:00:00 -2,4 -5,7 26 14 40 21 Z 1007,9 10
22.01.2019 08:00:00 -2,1 -5,5 21 11 36 19 Z 1008,3 10
22.01.2019 07:00:00 -2,1 -5,4 16 9 - - ZZW 1009,6 10
22.01.2019 06:00:00 -2,0 -5,2 21 11 29 16 Z 1010,2 10
22.01.2019 05:00:00 -2,3 -5,1 22 12 32 18 Z 1011,6 10
22.01.2019 04:00:00 -2,4 -5,9 18 10 - - Z 1013,0 10
22.01.2019 03:00:00 -2,4 -6,0 16 9 22 12 Z 1014,1 10
22.01.2019 02:00:00 -3,0 -5,8 11 6 14 8 Z 1015,5 10
22.01.2019 01:00:00 -2,8 -5,6 9 5 - - Z 1016,6 10
22.01.2019 00:00:00 -3,0 -5,4 11 6 14 8 Z 1017,4 10
21.01.2019 23:00:00 -2,3 -5,1 11 6 14 8 ZZW 1018,2 10
21.01.2019 22:00:00 -2,1 -4,8 13 7 - - ZZW 1019,3 10
21.01.2019 21:00:00 -2,0 -4,7 11 6 14 8 ZZW 1019,8 10
21.01.2019 20:00:00 -2,2 -4,6 5 3 7 4 Z 1020,4 10
21.01.2019 19:00:00 -1,2 -4,3 5 3 - - Z 1020,5 10
21.01.2019 18:00:00 0,3 -4,6 5 3 11 6 ZW 1021,1 10
21.01.2019 17:00:00 1,1 -4,5 5 3 7 4 ZW 1021,3 10
21.01.2019 16:00:00 2,3 -6,8 8 4 - - W 1021,8 10
21.01.2019 15:00:00 3,2 -6,4 4 2 7 4 W 1022,3 10
21.01.2019 14:00:00 2,6 -4,8 4 2 7 4 WNW 1023,3 10
21.01.2019 13:00:00 2,0 -3,3 2 1 - - - 1023,9 10
21.01.2019 12:00:00 0,4 -4,2 2 1 7 4 - 1024,5 10
21.01.2019 11:00:00 -1,5 -4,2 4 2 7 4 ZZW 1024,4 10
21.01.2019 10:00:00 -3,7 -5,1 4 2 - - ZZW 1024,5 8
21.01.2019 09:00:00 -5,3 -7,0 2 1 7 4 WNW 1024,5 9
21.01.2019 08:00:00 -5,6 -7,2 5 3 7 4 ZZW 1023,6 10
21.01.2019 07:00:00 -5,6 -7,0 4 2 - - ZW 1023,4 10
21.01.2019 06:00:00 -5,4 -6,8 2 1 4 2 WZW 1023,5 10
21.01.2019 05:00:00 -4,4 -6,4 2 1 4 2 WNW 1023,6 10
21.01.2019 04:00:00 -5,0 -6,5 0 0 - - N 1023,7 10
21.01.2019 03:00:00 -4,9 -6,4 2 1 4 2 NNW 1023,7 10
21.01.2019 02:00:00 -4,2 -5,8 2 1 4 2 N 1023,2 10
21.01.2019 01:00:00 -4,2 -5,6 2 1 - - ZZO 1022,8 10
21.01.2019 00:00:00 -3,6 -5,1 0 0 4 2 N 1022,9 10
20.01.2019 23:00:00 -3,0 -5,2 2 1 7 4 - 1022,5 10
20.01.2019 22:00:00 -2,5 -4,6 4 2 - - NO 1021,9 10
20.01.2019 21:00:00 -2,1 -5,7 2 1 11 6 N 1021,4 10
20.01.2019 20:00:00 -1,3 -4,9 5 3 7 4 ONO 1020,6 10
20.01.2019 19:00:00 -0,7 -5,2 5 3 - - O 1019,8 10
20.01.2019 18:00:00 0,0 -4,7 8 4 14 8 ONO 1019,2 10
20.01.2019 17:00:00 0,7 -4,3 9 5 14 8 NO 1018,5 10
20.01.2019 16:00:00 1,7 -4,6 11 6 - - NO 1018,0 10
20.01.2019 15:00:00 1,1 -3,7 8 4 11 6 NO 1017,8 10
20.01.2019 14:00:00 0,0 -3,7 8 4 14 8 NO 1017,6 10
20.01.2019 13:00:00 -1,1 -3,8 9 5 - - NO 1017,6 10
20.01.2019 12:00:00 -2,1 -4,5 4 2 7 4 - 1017,4 10
20.01.2019 11:00:00 -3,4 -4,9 5 3 11 6 ONO 1016,9 10
20.01.2019 10:00:00 -4,8 -6,1 4 2 - - ONO 1016,2 9
20.01.2019 09:00:00 -4,9 -5,9 2 1 4 2 OZO 1015,2 9
20.01.2019 08:00:00 -4,9 -6,0 2 1 7 4 O 1014,5 10
20.01.2019 07:00:00 -4,5 -5,8 4 2 - - ONO 1014,1 10
20.01.2019 06:00:00 -4,2 -5,4 2 1 7 4 O 1013,7 10
20.01.2019 05:00:00 -3,7 -5,6 4 2 7 4 - 1013,6 10
20.01.2019 04:00:00 -3,5 -5,3 5 3 - - O 1013,7 10
20.01.2019 03:00:00 -3,5 -4,7 4 2 7 4 ONO 1013,6 10
20.01.2019 02:00:00 -3,0 -5,0 4 2 7 4 - 1013,3 10
20.01.2019 01:00:00 -2,5 -5,1 5 3 - - O 1013,4 10
20.01.2019 00:00:00 -1,8 -4,7 5 3 11 6 OZO 1013,2 10
19.01.2019 23:00:00 -1,4 -4,2 8 4 14 8 ZO 1012,9 10
19.01.2019 22:00:00 -1,3 -4,4 5 3 - - OZO 1012,8 10
19.01.2019 21:00:00 -0,7 -4,1 5 3 14 8 OZO 1012,6 10
19.01.2019 20:00:00 -0,2 -3,8 8 4 11 6 OZO 1012,7 10
19.01.2019 19:00:00 0,2 -3,7 5 3 - - OZO 1012,7 10
19.01.2019 18:00:00 0,9 -3,3 8 4 11 6 OZO 1012,6 10
19.01.2019 17:00:00 1,6 -3,1 8 4 18 10 OZO 1012,8 10
19.01.2019 16:00:00 2,2 -3,5 13 7 - - OZO 1013,1 10
19.01.2019 15:00:00 2,2 -3,2 13 7 22 12 OZO 1013,6 10
19.01.2019 14:00:00 2,1 -2,7 13 7 22 12 OZO 1014,4 10
19.01.2019 13:00:00 1,4 -2,9 11 6 - - ZO 1015,0 10
19.01.2019 12:00:00 0,5 -3,0 15 8 22 12 ZO 1015,8 10
19.01.2019 11:00:00 -0,2 -3,1 9 5 14 8 OZO 1016,0 10
19.01.2019 10:00:00 -1,4 -3,6 9 5 - - ZO 1016,1 10
19.01.2019 09:00:00 -2,3 -4,0 9 5 14 8 ZO 1016,1 10
19.01.2019 08:00:00 -2,4 -4,0 7 4 18 10 ZO 1016,1 18
19.01.2019 07:00:00 -2,2 -3,8 13 7 - - ZO 1016,2 10
19.01.2019 06:00:00 -2,1 -3,5 9 5 14 8 ZO 1016,6 10
19.01.2019 05:00:00 -2,0 -3,3 9 5 14 8 ZO 1017,2 10
19.01.2019 04:00:00 -2,1 -3,2 5 3 - - ZO 1017,6 10
19.01.2019 03:00:00 -2,0 -3,1 8 4 11 6 ZO 1017,9 10
19.01.2019 02:00:00 -2,1 -2,9 5 3 7 4 ZO 1018,4 10
19.01.2019 01:00:00 -2,0 -2,8 5 3 - - OZO 1018,7 8
19.01.2019 00:00:00 -1,7 -1,9 2 1 7 4 ZO 1019,0 3,5
18.01.2019 23:00:00 -1,5 -1,6 5 3 11 6 ZO 1019,2 0,3
18.01.2019 22:00:00 -0,9 -0,9 4 2 - - - 1019,4 0,3
18.01.2019 21:00:00 -0,4 -0,5 5 3 11 6 ZZO 1019,4 5
18.01.2019 20:00:00 0,1 -0,3 4 2 7 4 ZO 1019,4 6
18.01.2019 19:00:00 0,5 -0,1 5 3 - - OZO 1019,5 4,5
18.01.2019 18:00:00 0,9 0,0 4 2 7 4 ZO 1019,7 6
18.01.2019 17:00:00 1,7 0,5 4 2 7 4 ZZO 1019,9 7
18.01.2019 16:00:00 2,0 0,5 5 3 - - Z 1020,0 6
18.01.2019 15:00:00 2,0 0,9 15 8 22 12 Z 1020,1 4,2
18.01.2019 14:00:00 1,5 0,9 13 7 18 10 ZZO 1020,3 3,2
18.01.2019 13:00:00 1,9 1,1 8 4 - - ZZO 1020,7 6
18.01.2019 12:00:00 0,7 0,0 8 4 11 6 Z 1021,1 7
18.01.2019 11:00:00 0,3 -0,2 8 4 7 4 Z 1020,9 7
18.01.2019 10:00:00 -0,2 -0,7 5 3 - - Z 1020,4 6
18.01.2019 09:00:00 -0,8 -1,3 5 3 11 6 Z 1019,9 6
18.01.2019 08:00:00 -0,8 -1,6 5 3 11 6 ZZW 1019,3 10
18.01.2019 07:00:00 -0,4 -1,1 9 5 - - ZW 1019,0 10
18.01.2019 06:00:00 -0,2 -1,0 9 5 14 8 ZW 1018,7 10
18.01.2019 05:00:00 0,1 -0,6 8 4 14 8 ZW 1018,4 10
18.01.2019 04:00:00 0,5 -0,2 9 5 - - WZW 1018,1 10
18.01.2019 03:00:00 0,8 0,0 9 5 22 12 W 1017,4 10
18.01.2019 02:00:00 1,1 0,1 13 7 18 10 W 1017,0 10
18.01.2019 01:00:00 1,2 0,2 13 7 - - W 1016,5 10
18.01.2019 00:00:00 1,2 -0,1 15 8 25 14 W 1016,0 10
17.01.2019 23:00:00 1,8 0,7 16 9 29 16 WNW 1015,3 10
17.01.2019 22:00:00 1,5 0,5 9 5 - - W 1014,7 4,0
17.01.2019 21:00:00 1,8 0,4 18 10 32 18 W 1014,0 10
17.01.2019 20:00:00 1,8 0,5 18 10 40 21 W 1012,9 20
17.01.2019 19:00:00 1,5 0,0 28 15 - - WNW 1011,7 5
17.01.2019 18:00:00 2,1 -0,4 31 17 47 25 W 1010,5 3,0
17.01.2019 17:00:00 3,4 -0,8 26 14 50 27 W 1009,4 10
17.01.2019 16:00:00 3,8 -0,1 26 14 - - W 1008,5 10
17.01.2019 15:00:00 3,3 1,3 22 12 47 25 WNW 1007,5 10
17.01.2019 14:00:00 3,3 1,5 21 11 54 29 WNW 1006,9 10
17.01.2019 13:00:00 4,8 3,0 22 12 - - WNW 1005,6 10
17.01.2019 12:00:00 4,2 2,5 24 13 47 25 WNW 1004,8 10
17.01.2019 11:00:00 4,1 2,9 26 14 43 23 W 1004,1 4,0
17.01.2019 10:00:00 4,6 3,1 28 15 - - WZW 1003,2 10
17.01.2019 09:00:00 4,0 2,5 22 12 36 19 WZW 1002,7 7

tt = temperatuur
td = dauwpunt
ff = windsnelheid
fx = windstoten
dd = windrichting
ppp = luchtdruk
vv = zicht

Weerstations in de omgeving